TimeCDT,TemperatureF,Dew PointF,Humidity,Sea Level PressureIn,VisibilityMPH,Wind Direction,Wind SpeedMPH,Gust SpeedMPH,PrecipitationIn,Events,Conditions,WindDirDegrees,DateUTC
12:53 AM,27.0,21.9,81,29.90,10.0,NW,11.5,-,N/A,,Overcast,310,2013-03-11 05:53:00
1:53 AM,27.0,21.9,81,29.89,10.0,WNW,11.5,-,N/A,,Overcast,290,2013-03-11 06:53:00
2:53 AM,27.0,21.9,81,29.88,10.0,WNW,13.8,-,N/A,,Overcast,300,2013-03-11 07:53:00
3:53 AM,26.1,21.0,81,29.87,10.0,WNW,15.0,19.6,N/A,,Overcast,300,2013-03-11 08:53:00
4:53 AM,26.1,19.9,78,29.87,10.0,NW,11.5,-,N/A,,Overcast,310,2013-03-11 09:53:00
5:53 AM,26.1,19.9,78,29.88,10.0,WNW,10.4,19.6,N/A,,Overcast,300,2013-03-11 10:53:00
6:53 AM,26.1,19.9,78,29.91,10.0,WNW,11.5,19.6,N/A,,Overcast,290,2013-03-11 11:53:00
7:53 AM,26.1,19.0,75,29.93,10.0,WNW,11.5,18.4,N/A,,Overcast,300,2013-03-11 12:53:00
8:38 AM,24.8,19.4,80,29.90,9.0,WNW,13.8,-,0.00,Snow,Light Snow,290,2013-03-11 13:38:00
8:53 AM,25.0,19.0,78,29.93,9.0,WNW,13.8,-,0.00,Snow,Light Snow,300,2013-03-11 13:53:00
9:53 AM,26.1,19.0,75,29.94,9.0,WNW,12.7,-,0.00,Snow,Light Snow,290,2013-03-11 14:53:00
10:39 AM,26.6,19.4,74,29.92,9.0,WNW,15.0,20.7,0.00,Snow,Light Snow,300,2013-03-11 15:39:00
10:53 AM,26.1,19.0,75,29.95,9.0,WNW,9.2,20.7,0.00,Snow,Light Snow,300,2013-03-11 15:53:00
11:07 AM,26.6,19.4,74,29.92,9.0,WNW,15.0,-,0.00,Snow,Light Snow,290,2013-03-11 16:07:00
11:53 AM,27.0,19.0,72,29.96,9.0,WNW,12.7,-,0.00,Snow,Light Snow,290,2013-03-11 16:53:00
12:53 PM,28.0,19.9,72,29.96,9.0,WNW,11.5,18.4,0.00,Snow,Light Snow,290,2013-03-11 17:53:00
1:53 PM,28.9,19.9,69,29.95,9.0,West,12.7,-,0.00,Snow,Light Snow,270,2013-03-11 18:53:00
2:53 PM,30.9,21.9,69,29.94,10.0,West,10.4,-,0.00,,Overcast,280,2013-03-11 19:53:00
3:53 PM,32.0,19.9,61,29.94,10.0,WNW,11.5,-,N/A,,Mostly Cloudy,290,2013-03-11 20:53:00
4:53 PM,35.1,21.0,57,29.93,10.0,West,10.4,-,N/A,,Partly Cloudy,270,2013-03-11 21:53:00
5:53 PM,35.1,19.0,52,29.95,10.0,WNW,9.2,-,N/A,,Scattered Clouds,290,2013-03-11 22:53:00
6:53 PM,34.0,19.9,56,29.96,10.0,West,6.9,-,N/A,,Scattered Clouds,280,2013-03-11 23:53:00
7:53 PM,32.0,19.9,61,29.99,10.0,WNW,3.5,-,N/A,,Scattered Clouds,290,2013-03-12 00:53:00
8:53 PM,33.1,19.0,56,29.99,10.0,West,3.5,-,N/A,,Scattered Clouds,280,2013-03-12 01:53:00
9:53 PM,30.0,19.0,64,30.00,10.0,Calm,Calm,-,N/A,,Scattered Clouds,0,2013-03-12 02:53:00
10:53 PM,30.2,19.4,64,29.99,10.0,West,4.6,-,N/A,,Partly Cloudy,260,2013-03-12 03:53:00
11:53 PM,30.0,19.9,66,30.04,10.0,WSW,5.8,-,N/A,,Partly Cloudy,250,2013-03-12 04:53:00